When you browse on this site, cookies collect data to enhance your experience and personalize the content and advertising you see.
Visit our Privacy Policy to learn more. By continuing to use the site, you agree to this use of cookies and data.
  • en Suisse
  • Liste des pays
  • À 7 jours
  • Température de l'eau
  • Carte météo
  • Widgets météo
  • user-avatar
    Se connecter

    Météo par heure à Manaus

    Ce jour, 7 Avril, Mardi

    Heure Température Précipitation Vent Pression Humidité
    00:00 +27°C° 0 mm 1 m/s 754 mmHg 97%
    01:00 +26°C° 0 mm 1 m/s 754 mmHg 97%
    02:00 +26°C° 0 mm 1 m/s 753 mmHg 97%
    03:00 +26°C° 0 mm 1 m/s 753 mmHg 97%
    04:00 +26°C° 0 mm 1 m/s 753 mmHg 96%
    05:00 +25°C° 0 mm 1 m/s 753 mmHg 96%
    06:00 +26°C° 0 mm 1 m/s 754 mmHg 93%
    07:00 +27°C° 0 mm 1 m/s 755 mmHg 89%
    08:00 +28°C° 0 mm 1 m/s 756 mmHg 86%
    09:00 +30°C° 0 mm 2 m/s 755 mmHg 78%
    10:00 +32°C° 0 mm 2 m/s 755 mmHg 69%
    11:00 +35°C° 0 mm 2 m/s 755 mmHg 61%
    12:00 +35°C° 0.1 mm 2 m/s 754 mmHg 60%
    13:00 +36°C° 0.1 mm 2 m/s 753 mmHg 59%
    14:00 +36°C° 0.1 mm 2 m/s 752 mmHg 57%
    15:00 +34°C° 0.6 mm 1 m/s 752 mmHg 65%
    16:00 +33°C° 0.6 mm 1 m/s 751 mmHg 72%
    17:00 +32°C° 0.6 mm 1 m/s 751 mmHg 80%
    18:00 +31°C° 0.5 mm 1 m/s 752 mmHg 84%
    19:00 +29°C° 0.5 mm 1 m/s 753 mmHg 89%
    20:00 +28°C° 0.5 mm 1 m/s 753 mmHg 94%
    21:00 +27°C° 2.4 mm 1 m/s 754 mmHg 95%
    22:00 +27°C° 2.4 mm 1 m/s 754 mmHg 96%
    23:00 +27°C° 2.4 mm 1 m/s 754 mmHg 97%

    Demain, 8 Avril, Mercredi

    Heure Température Précipitation Vent Pression Humidité
    00:00 +27°C° 2.1 mm 1 m/s 754 mmHg 97%
    01:00 +27°C° 2.1 mm 1 m/s 753 mmHg 97%
    02:00 +26°C° 2.1 mm 1 m/s 752 mmHg 97%
    03:00 +26°C° 2.7 mm 1 m/s 752 mmHg 97%
    04:00 +26°C° 2.7 mm 1 m/s 752 mmHg 97%
    05:00 +26°C° 2.7 mm 1 m/s 752 mmHg 97%
    06:00 +26°C° 2 mm 1 m/s 753 mmHg 97%
    07:00 +27°C° 2 mm 2 m/s 754 mmHg 96%
    08:00 +27°C° 2 mm 2 m/s 755 mmHg 96%
    09:00 +27°C° 6.4 mm 2 m/s 755 mmHg 97%
    10:00 +26°C° 6.4 mm 2 m/s 755 mmHg 97%
    11:00 +26°C° 6.4 mm 2 m/s 755 mmHg 98%
    12:00 +26°C° 5.4 mm 2 m/s 755 mmHg 97%
    13:00 +26°C° 5.4 mm 2 m/s 754 mmHg 97%
    14:00 +26°C° 5.4 mm 2 m/s 754 mmHg 97%
    15:00 +26°C° 2.7 mm 2 m/s 754 mmHg 97%
    16:00 +26°C° 2.7 mm 1 m/s 753 mmHg 97%
    17:00 +26°C° 2.7 mm 1 m/s 753 mmHg 97%
    18:00 +25°C° 0.1 mm 1 m/s 753 mmHg 97%
    19:00 +25°C° 0.1 mm 1 m/s 753 mmHg 97%
    20:00 +23°C° 0.1 mm 0 m/s 753 mmHg 97%
    21:00 +23°C° 0 mm 0 m/s 753 mmHg 97%
    22:00 +23°C° 0 mm 0 m/s 753 mmHg 96%
    23:00 +25°C° 0 mm 1 m/s 753 mmHg 96%

    Après-demain, 9 Avril, Jeudi

    Heure Température Précipitation Vent Pression Humidité
    00:00 +25°C° 0 mm 1 m/s 753 mmHg 96%
    01:00 +25°C° 0 mm 1 m/s 753 mmHg 97%
    02:00 +25°C° 0 mm 1 m/s 752 mmHg 97%
    03:00 +25°C° 0 mm 1 m/s 752 mmHg 97%
    04:00 +25°C° 0 mm 1 m/s 752 mmHg 97%
    05:00 +24°C° 0 mm 1 m/s 753 mmHg 98%
    06:00 +25°C° 0 mm 1 m/s 753 mmHg 95%
    07:00 +26°C° 0 mm 1 m/s 754 mmHg 93%
    08:00 +27°C° 0 mm 1 m/s 755 mmHg 91%
    09:00 +28°C° 0 mm 1 m/s 755 mmHg 83%
    10:00 +30°C° 0 mm 1 m/s 755 mmHg 75%
    11:00 +32°C° 0 mm 1 m/s 755 mmHg 67%
    12:00 +32°C° 0.3 mm 1 m/s 754 mmHg 68%
    13:00 +33°C° 0.3 mm 1 m/s 752 mmHg 68%
    14:00 +33°C° 0.3 mm 1 m/s 751 mmHg 68%
    15:00 +32°C° 0.8 mm 1 m/s 751 mmHg 74%
    16:00 +31°C° 0.8 mm 1 m/s 751 mmHg 81%
    17:00 +30°C° 0.8 mm 1 m/s 751 mmHg 87%
    18:00 +29°C° 1.4 mm 1 m/s 751 mmHg 89%
    19:00 +28°C° 1.4 mm 1 m/s 752 mmHg 91%
    20:00 +27°C° 1.4 mm 1 m/s 752 mmHg 93%
    21:00 +25°C° 0.4 mm 0 m/s 753 mmHg 93%
    22:00 +25°C° 0.4 mm 0 m/s 753 mmHg 94%
    23:00 +25°C° 0.4 mm 0 m/s 754 mmHg 94%

    10 Avril, Vendredi

    Heure Température Précipitation Vent Pression Humidité
    00:00 +24°C° 0.6 mm 0 m/s 753 mmHg 95%
    01:00 +24°C° 0.6 mm 0 m/s 753 mmHg 95%
    02:00 +24°C° 0.6 mm 0 m/s 752 mmHg 96%
    03:00 +24°C° 1.4 mm 0 m/s 752 mmHg 96%
    04:00 +26°C° 1.4 mm 1 m/s 752 mmHg 97%
    05:00 +25°C° 1.4 mm 1 m/s 752 mmHg 97%
    06:00 +26°C° 1.6 mm 1 m/s 753 mmHg 97%
    07:00 +27°C° 1.6 mm 1 m/s 754 mmHg 96%
    08:00 +25°C° 1.6 mm 0 m/s 754 mmHg 95%
    09:00 +28°C° 1.8 mm 1 m/s 755 mmHg 95%
    10:00 +28°C° 1.8 mm 1 m/s 755 mmHg 94%
    11:00 +28°C° 1.8 mm 1 m/s 755 mmHg 94%
    12:00 +27°C° 1.6 mm 1 m/s 754 mmHg 95%
    13:00 +27°C° 1.6 mm 2 m/s 754 mmHg 95%
    14:00 +26°C° 1.6 mm 2 m/s 753 mmHg 96%
    15:00 +26°C° 1.7 mm 2 m/s 753 mmHg 97%
    16:00 +26°C° 1.7 mm 2 m/s 753 mmHg 97%
    17:00 +25°C° 1.7 mm 1 m/s 753 mmHg 98%
    18:00 +25°C° 0.7 mm 1 m/s 754 mmHg 98%
    19:00 +25°C° 0.7 mm 1 m/s 754 mmHg 98%
    20:00 +25°C° 0.7 mm 1 m/s 754 mmHg 98%
    21:00 +23°C° 0.1 mm 0 m/s 755 mmHg 98%
    22:00 +23°C° 0.1 mm 0 m/s 755 mmHg 98%
    23:00 +23°C° 0.1 mm 0 m/s 755 mmHg 97%

    11 Avril, Samedi

    Heure Température Précipitation Vent Pression Humidité
    00:00 +23°C° 0 mm 0 m/s 754 mmHg 98%
    01:00 +23°C° 0 mm 0 m/s 754 mmHg 98%
    02:00 +23°C° 0 mm 0 m/s 753 mmHg 98%
    03:00 +23°C° 0 mm 0 m/s 754 mmHg 98%
    04:00 +23°C° 0 mm 0 m/s 754 mmHg 98%
    05:00 +23°C° 0 mm 0 m/s 754 mmHg 97%
    06:00 +23°C° 0 mm 0 m/s 755 mmHg 97%
    07:00 +25°C° 0 mm 1 m/s 755 mmHg 96%
    08:00 +26°C° 0 mm 1 m/s 756 mmHg 96%
    09:00 +26°C° 0.2 mm 1 m/s 756 mmHg 95%
    10:00 +26°C° 0.2 mm 1 m/s 756 mmHg 94%
    11:00 +27°C° 0.2 mm 1 m/s 756 mmHg 93%
    12:00 +28°C° 0.1 mm 1 m/s 755 mmHg 87%
    13:00 +29°C° 0.1 mm 1 m/s 755 mmHg 81%
    14:00 +30°C° 0.1 mm 1 m/s 754 mmHg 75%
    15:00 +29°C° 0.6 mm 1 m/s 753 mmHg 80%
    16:00 +29°C° 0.6 mm 1 m/s 753 mmHg 86%
    17:00 +28°C° 0.6 mm 1 m/s 753 mmHg 91%
    18:00 +27°C° 0.3 mm 1 m/s 754 mmHg 92%
    19:00 +25°C° 0.3 mm 0 m/s 754 mmHg 94%
    20:00 +24°C° 0.3 mm 0 m/s 754 mmHg 95%
    21:00 +24°C° 0 mm 0 m/s 755 mmHg 95%
    22:00 +24°C° 0 mm 0 m/s 755 mmHg 96%
    23:00 +24°C° 0 mm 0 m/s 755 mmHg 96%

    12 Avril, Dimanche

    Heure Température Précipitation Vent Pression Humidité
    00:00 +23°C° 0 mm 0 m/s 755 mmHg 96%
    01:00 +23°C° 0 mm 0 m/s 754 mmHg 96%
    02:00 +23°C° 0 mm 0 m/s 754 mmHg 97%
    03:00 +23°C° 0 mm 0 m/s 754 mmHg 97%
    04:00 +23°C° 0 mm 0 m/s 754 mmHg 97%
    05:00 +23°C° 0 mm 0 m/s 754 mmHg 97%
    06:00 +25°C° 0 mm 1 m/s 755 mmHg 96%
    07:00 +26°C° 0 mm 1 m/s 755 mmHg 94%
    08:00 +27°C° 0 mm 1 m/s 756 mmHg 93%
    09:00 +28°C° 0.7 mm 1 m/s 756 mmHg 87%
    10:00 +30°C° 0.7 mm 1 m/s 756 mmHg 82%
    11:00 +31°C° 0.7 mm 1 m/s 756 mmHg 77%
    12:00 +31°C° 0.7 mm 1 m/s 754 mmHg 76%
    13:00 +32°C° 0.7 mm 1 m/s 753 mmHg 75%
    14:00 +32°C° 0.7 mm 1 m/s 752 mmHg 73%
    15:00 +31°C° 0.4 mm 1 m/s 752 mmHg 76%
    16:00 +31°C° 0.4 mm 1 m/s 752 mmHg 79%
    17:00 +30°C° 0.4 mm 1 m/s 751 mmHg 82%
    18:00 +29°C° 0.8 mm 1 m/s 752 mmHg 85%
    19:00 +28°C° 0.8 mm 1 m/s 753 mmHg 89%
    20:00 +27°C° 0.8 mm 1 m/s 754 mmHg 92%
    21:00 +27°C° 0.2 mm 1 m/s 754 mmHg 93%
    22:00 +27°C° 0.2 mm 1 m/s 754 mmHg 93%
    23:00 +26°C° 0.2 mm 1 m/s 755 mmHg 93%
    Voir plus